[[{"header":{"parameterUnit":"m.s-1","parameterCategory":1,"la1":30.2991,"la2":30.254,"lo1":-89.0895,"lo2":-89.0444,"dy":0.0017,"dx":0.0017,"nx":28,"ny":28,"refTime":"2024-07-12T21:00:00:Z","depth":0,"parameterNumber":2,"parameterNumberName":"U-component_of_WINDS"},"data":[0,0,0,0,0,0,0,0,0,0,0,0,0,0,0,0,0,0,0,0,0,0,0,0,0,0,0,0,0,0,0,0,0,0,0,0,0,0,0,0,0,0,0,0,0,0,0,0,0,0,0,0,0,0,0,0,0,0,0.4536,0.4539,0,0.4768,0.4771,0.4773,0.477,0.4766,0.4763,0.476,0.5022,0.5031,0.5041,0,0,0,0,0,0,0,0,0,0,0,0,0,0.4108,0.4116,0.4536,0.4539,0.4542,0.4768,0.4771,0.4774,0.477,0.4766,0.4762,0.4759,0.5018,0.503,0.5042,0,0,0,0,0,0,0,0,0,0,0,0,0,0.4313,0.4118,0.4536,0.4567,0.4572,0.4767,0.4771,0.4775,0.4771,0.4766,0.4761,0.4757,0.5015,0.5029,0.5044,0.5231,0,0,0.5089,0.5096,0,0,0,0,0,0,0,0,0.4301,0.4329,0.4559,0.4565,0.4571,0.4734,0.4716,0.4929,0.4772,0.4696,0.476,0.4755,0.4932,0.4953,0.5008,0.5243,0.5254,0.5091,0.51,0.5106,0.511,0,0,0,0,0,0,0,0.4287,0.4319,0.4629,0.4563,0.457,0.4575,0.4599,0.4756,0.4839,0.4702,0.4702,0.4729,0.4934,0.4993,0.5014,0.5258,0.509,0.5103,0.5113,0.5118,0.5655,0.566,0,0,0,0,0,0,0.4264,0.4307,0.4621,0.4636,0.4421,0.4586,0.4613,0.4687,0.4837,0.4854,0.4733,0.4728,0.497,0.4997,0.5023,0.525,0.5106,0.512,0.5128,0.565,0.5656,0.5662,0,0,0,0,0,0,0.4254,0.4292,0.4612,0.4471,0.4512,0.4598,0.4682,0.4694,0.4753,0.4859,0.4876,0.4777,0.4968,0.5002,0.5177,0.5259,0.5126,0.514,0.5644,0.5652,0.5659,0.5706,0,0,0,0,0,0,0.4242,0.4288,0.4357,0.4472,0.452,0.4757,0.4687,0.4702,0.4776,0.4772,0.4905,0.4923,0.4967,0.5154,0.5191,0.5277,0.5152,0.5637,0.5647,0.5657,0.5698,0.5714,0.5729,0,0,0,0,0,0.4227,0.4367,0.436,0.4398,0.4606,0.4761,0.4789,0.4829,0.4783,0.4855,0.4921,0.4919,0.5242,0.5172,0.5214,0.5305,0.5632,0.5644,0.5656,0.569,0.5711,0.5728,0,0,0,0,0,0,0.4269,0.4383,0.4377,0.4557,0.4648,0.476,0.4852,0.4851,0.4964,0.4956,0.5008,0.5039,0.5212,0.5277,0.5196,0.5492,0.5432,0.5453,0.5444,0.5465,0.548,0.5463,0.5164,0,0,0,0,0,0.4297,0.4407,0.4504,0.4654,0.4698,0.4767,0.4837,0.4858,0.4958,0.5,0.508,0.5183,0.5307,0.539,0.5511,0.5705,0.5735,0.5788,0.5804,0.5816,0.5835,0.5941,0.5965,0.5702,0.5701,0.5701,0,0,0.4361,0.4437,0.4505,0.4664,0.4737,0.4854,0.48,0.4929,0.5018,0.5022,0.5188,0.525,0.5369,0.5553,0.5639,0.5612,0.5913,0.5831,0.584,0.5853,0.5955,0.598,0.6002,0.571,0.5708,0.5707,0,0,0.4537,0.4604,0.4734,0.4805,0.4913,0.4956,0.4987,0.5097,0.5136,0.5301,0.5305,0.5415,0.5629,0.5712,0.5783,0.598,0.5982,0.6018,0.6103,0.6205,0.6226,0.6244,0.6315,0.634,0.6036,0.6036,0.6036,0,0.4605,0.4775,0.4804,0.4929,0.4999,0.4997,0.5131,0.5202,0.5348,0.5399,0.5364,0.5627,0.5708,0.591,0.5956,0.6013,0.6053,0.6006,0.6219,0.6238,0.6256,0.6324,0.635,0.604,0.604,0.6039,0.6039,0,0.4853,0.4971,0.5064,0.5193,0.5274,0.5404,0.5456,0.5535,0.5548,0.5596,0.5765,0.5859,0.5996,0.6046,0.6065,0.625,0.6229,0.6206,0.6148,0.6284,0.6349,0.6375,0.6045,0.6044,0.6043,0.6042,0,0,0.5069,0.5203,0.5237,0.5294,0.5408,0.5504,0.5634,0.5758,0.5825,0.5925,0.6037,0.6213,0.6189,0.6269,0.6296,0.6385,0.6534,0.6351,0.6355,0.6383,0.6744,0.6761,0.6791,0.6533,0.6538,0.6543,0.6734,0,0.5256,0.5478,0.5504,0.5704,0.5814,0.581,0.5923,0.6008,0.6055,0.6159,0.6214,0.6337,0.6297,0.6345,0.6432,0.6497,0.6608,0.6484,0.6644,0.6649,0.6615,0.6825,0.6846,0.7022,0.6759,0.6764,0.6767,0,0.5507,0.56,0.5809,0.5902,0.595,0.605,0.6164,0.6262,0.6359,0.6387,0.647,0.6484,0.6623,0.6553,0.6746,0.6661,0.6727,0.6769,0.6777,0.6796,0.6718,0.6852,0.7079,0.7106,0.6807,0.6804,0.6801,0,0.5642,0.5822,0.5968,0.6017,0.6131,0.6201,0.6253,0.6343,0.6415,0.6517,0.6565,0.6685,0.6752,0.6846,0.6893,0.6839,0.7083,0.7019,0.7114,0.7113,0.7169,0.7166,0.7412,0.7208,0.7208,0.7207,0.7207,0,0.585,0.5978,0.6029,0.612,0.6263,0.6293,0.6436,0.6486,0.6566,0.6669,0.6676,0.6774,0.6828,0.6936,0.6975,0.7128,0.7159,0.7188,0.7197,0.7189,0.7185,0.7236,0.7226,0.7214,0.7213,0.7211,0.721,0,0.6028,0.6067,0.6226,0.6316,0.6342,0.6444,0.6524,0.6614,0.6655,0.6786,0.6819,0.6889,0.7015,0.7068,0.7228,0.7253,0.7429,0.7429,0.7393,0.7397,0.7489,0.748,0.7779,0.782,0.7587,0.7589,0.7591,0,0.616,0.6256,0.6353,0.6417,0.6469,0.6576,0.6645,0.6678,0.6752,0.6865,0.6942,0.7065,0.7166,0.7369,0.7438,0.7558,0.7562,0.7658,0.7581,0.7568,0.7565,0.7559,0.7569,0.7674,0.7676,0.7678,0.768,0,0.6388,0.64,0.6497,0.6599,0.668,0.6765,0.6848,0.6903,0.6949,0.7032,0.7155,0.7233,0.7388,0.7512,0.7634,0.7695,0.7697,0.7701,0.773,0.7725,0.77,0.7714,0.7434,0.7697,0.7695,0.7694,0.7693,0.7692,0.6548,0.6632,0.671,0.6817,0.688,0.6955,0.7042,0.709,0.7191,0.7315,0.7329,0.7462,0.7554,0.7717,0.778,0.7888,0.7865,0.7907,0.7918,0.7928,0.7933,0.7678,0.7911,0.7911,0.791,0.791,0.791,0,0.6777,0.6825,0.6922,0.7032,0.7116,0.7099,0.7188,0.7262,0.7375,0.7457,0.7552,0.7694,0.7812,0.7885,0.8005,0.8077,0.8081,0.8108,0.8105,0.8119,0.7948,0.7911,0.8103,0.8103,0.8103,0.8103,0.8103,0.8103,0.6906,0.7046,0.7066,0.7238,0.7287,0.741,0.7462,0.7533,0.7596,0.7751,0.7845,0.7888,0.7968,0.8092,0.8201,0.822,0.8265,0.8293,0.8312,0.8151,0.8131,0.8112,0.8078,0.8302,0.8303,0.8474,0.8476,0.8477]},{"header":{"parameterUnit":"m.s-1","parameterCategory":1,"la1":30.2991,"la2":30.254,"lo1":-89.0895,"lo2":-89.0444,"dy":0.0017,"dx":0.0017,"nx":28,"ny":28,"refTime":"2024-07-12T21:00:00:Z","depth":0,"parameterNumber":3,"parameterNumberName":"V-component_of_WINDS"},"data":[0,0,0,0,0,0,0,0,0,0,0,0,0,0,0,0,0,0,0,0,0,0,0,0,0,0,0,0,0,0,0,0,0,0,0,0,0,0,0,0,0,0,0,0,0,0,0,0,0,0,0,0,0,0,0,0,0,0,3.2874,3.2871,0,3.2585,3.2582,3.2579,3.2311,3.2308,3.2305,3.2302,3.2002,3.1998,3.1993,0,0,0,0,0,0,0,0,0,0,0,0,0,3.3191,3.3187,3.2875,3.2871,3.2868,3.2586,3.2582,3.2578,3.2312,3.2308,3.2304,3.23,3.2004,3.1998,3.1992,0,0,0,0,0,0,0,0,0,0,0,0,0,3.2993,3.3185,3.2875,3.2701,3.2683,3.2587,3.2582,3.2577,3.2313,3.2308,3.2303,3.2299,3.2006,3.1999,3.1991,3.2043,0,0,3.1969,3.1966,0,0,0,0,0,0,0,0,3.3005,3.2982,3.273,3.2713,3.2692,3.2479,3.2583,3.2398,3.2314,3.2453,3.2302,3.2296,3.2165,3.2144,3.21,3.2029,3.2017,3.1968,3.1964,3.196,3.1958,0,0,0,0,0,0,0,3.3019,3.2993,3.276,3.2727,3.2703,3.2635,3.2602,3.2547,3.234,3.2441,3.2421,3.239,3.2153,3.2108,3.2091,3.2012,3.1968,3.1962,3.1957,3.1954,3.1968,3.1973,0,0,0,0,0,0,3.306,3.3006,3.2769,3.2751,3.284,3.2634,3.2596,3.2553,3.234,3.2303,3.2395,3.2379,3.2123,3.21,3.208,3.2127,3.1961,3.1954,3.1949,3.1963,3.1969,3.1974,0,0,0,0,0,0,3.3068,3.3041,3.2781,3.2873,3.2835,3.2633,3.2587,3.2549,3.2504,3.2305,3.2266,3.2387,3.2118,3.209,3.2054,3.2113,3.195,3.1943,3.1958,3.1965,3.1972,3.2224,0,0,0,0,0,0,3.3078,3.3046,3.3065,3.2876,3.2831,3.2763,3.259,3.2547,3.2492,3.2469,3.2288,3.2253,3.2112,3.2067,3.2047,3.21,3.1938,3.1951,3.1961,3.1969,3.2209,3.2239,3.2264,0,0,0,0,0,3.309,3.3147,3.3068,3.3041,3.2851,3.2767,3.2741,3.258,3.2498,3.2515,3.2387,3.2259,3.2109,3.2066,3.2041,3.2093,3.1947,3.1958,3.1969,3.2197,3.2233,3.2263,0,0,0,0,0,0,3.3348,3.3119,3.3029,3.3026,3.2918,3.2722,3.2739,3.2623,3.2535,3.2517,3.2318,3.2279,3.2266,3.2174,3.213,3.2131,3.201,3.2017,3.2193,3.2225,3.2252,3.2276,3.1932,0,0,0,0,0,3.3405,3.3357,3.3158,3.3175,3.3126,3.2943,3.2899,3.2784,3.2664,3.2617,3.2485,3.2373,3.23,3.2256,3.2178,3.2193,3.215,3.2216,3.2243,3.2267,3.2276,3.2277,3.2304,3.201,3.201,3.2009,0,0,3.3521,3.339,3.3372,3.3224,3.3127,3.3081,3.2906,3.2864,3.2828,3.2609,3.2569,3.2469,3.2329,3.232,3.2308,3.2243,3.2347,3.228,3.2301,3.2296,3.2291,3.2319,3.2344,3.2017,3.2016,3.2015,0,0,3.3711,3.3607,3.3609,3.3516,3.3371,3.3248,3.3249,3.3069,3.2995,3.2951,3.2786,3.2738,3.2617,3.2525,3.2462,3.2615,3.2494,3.2594,3.2738,3.2742,3.2765,3.2785,3.2841,3.2863,3.2603,3.2603,3.2604,0,3.3874,3.38,3.3625,3.3594,3.3534,3.3334,3.3335,3.3251,3.3088,3.3051,3.2979,3.2822,3.2714,3.268,3.2718,3.2673,3.2667,3.2616,3.2776,3.2794,3.2809,3.2861,3.2882,3.2617,3.2615,3.2614,3.2613,0,3.4008,3.3958,3.3977,3.3827,3.3768,3.3753,3.3575,3.3535,3.3424,3.3309,3.3266,3.3128,3.3019,3.3001,3.2892,3.2952,3.2916,3.2813,3.2688,3.2854,3.2899,3.2917,3.2636,3.2631,3.2627,3.2624,0,0,3.4355,3.4107,3.4117,3.4047,3.3871,3.3829,3.3803,3.3698,3.3669,3.3561,3.3536,3.3437,3.334,3.3269,3.3146,3.315,3.3281,3.3045,3.3039,3.3096,3.334,3.3422,3.3447,3.3198,3.3201,3.3203,3.3352,0,3.4517,3.4463,3.4305,3.4298,3.4251,3.4059,3.4036,3.3926,3.3817,3.3758,3.3635,3.357,3.3446,3.3402,3.3396,3.3267,3.3328,3.3253,3.3173,3.3172,3.3218,3.347,3.3556,3.3704,3.3369,3.3371,3.3373,0,3.47,3.4608,3.4599,3.4425,3.4398,3.4382,3.4272,3.4219,3.4088,3.4008,3.3929,3.3793,3.3754,3.3636,3.358,3.3533,3.349,3.3421,3.3423,3.3412,3.3286,3.347,3.3747,3.3771,3.3399,3.3397,3.3395,0,3.4958,3.483,3.4808,3.4752,3.4549,3.4542,3.4456,3.4321,3.4267,3.417,3.4133,3.4032,3.3978,3.3902,3.3742,3.3671,3.3705,3.3573,3.3638,3.3643,3.3657,3.3659,3.3936,3.3625,3.3624,3.3624,3.3623,0,3.5158,3.516,3.4921,3.4908,3.4904,3.4719,3.472,3.4615,3.4496,3.4458,3.4284,3.4252,3.4041,3.3984,3.3857,3.3831,3.3807,3.3741,3.3709,3.3759,3.3768,3.3731,3.3718,3.3629,3.3628,3.3627,3.3626,0,3.5446,3.5286,3.525,3.506,3.5012,3.5018,3.4854,3.4833,3.4711,3.4666,3.4644,3.4454,3.4378,3.4209,3.4087,3.4002,3.4008,3.3946,3.4054,3.4034,3.4109,3.4106,3.4374,3.4401,3.4072,3.4075,3.4078,0,3.5586,3.5584,3.5394,3.5357,3.5279,3.5221,3.5165,3.4982,3.4932,3.4782,3.478,3.469,3.4609,3.4495,3.4346,3.4251,3.4188,3.4288,3.4173,3.4224,3.4193,3.4197,3.4196,3.4316,3.432,3.4324,3.4327,0,3.5852,3.5773,3.5701,3.5602,3.5542,3.5454,3.5356,3.5335,3.5128,3.508,3.5001,3.4938,3.4813,3.4727,3.461,3.4518,3.439,3.4364,3.4374,3.4428,3.4491,3.4461,3.4128,3.4359,3.4356,3.4354,3.4352,3.4351,3.6071,3.6061,3.5926,3.5851,3.5759,3.5672,3.5644,3.5519,3.5451,3.5337,3.5231,3.5163,3.503,3.4859,3.4777,3.472,3.4655,3.4669,3.4673,3.4681,3.4704,3.4498,3.4697,3.4696,3.4695,3.4694,3.4693,0,3.633,3.6234,3.6167,3.6038,3.5979,3.5862,3.5748,3.5706,3.5649,3.5537,3.546,3.537,3.5284,3.5127,3.5028,3.5012,3.4951,3.4993,3.4994,3.4976,3.4766,3.4769,3.5045,3.5045,3.5045,3.5045,3.5045,3.5045,3.6459,3.6435,3.634,3.6268,3.6169,3.6102,3.6048,3.5966,3.5876,3.5783,3.5712,3.561,3.548,3.537,3.5286,3.5241,3.5214,3.5277,3.5215,3.5023,3.499,3.4959,3.496,3.5272,3.5272,3.5428,3.543,3.5431]}]]